Belfast, United Kingdom

6:07 AM GMT on March 23, 2017 (GMT +0000)
Aldergrove

Weather History for EGAA - February, 2013

Change the Weather History Date:

Wednesday, February 13, 2013

  Actual Average Record
Temperature  
Mean Temperature 44 °F -  
Max Temperature 50 °F 46 °F 59 °F (1998)
Min Temperature 37 °F 35 °F 26 °F (2008)
Degree Days  
Heating Degree Days 22    
Moisture  
Dew Point 44 °F    
Average Humidity 98    
Maximum Humidity 100    
Minimum Humidity 85    
Precipitation  
Precipitation 0.39 in 0.08 in - ()
Sea Level Pressure  
Sea Level Pressure 29.71 in    
Wind  
Wind Speed 13 mph ()    
Max Wind Speed 21 mph    
Max Gust Speed 28 mph    
Visibility 5.0 miles    
Events Rain    
Averages and records for this station are not official NWS values.
T = Trace of Precipitation, MM = Missing Value Source: Averaged Metar Reports

Daily Weather History Graph

Daily Weather History Graph

Search for Another Location

Airport or City:

Trip Planner

Search our weather history database for the weather conditions in past years. The results will help you decide how hot, cold, wet, or windy it might be!

Date:

Astronomy

Feb. 13, 2013 Rise Set
Actual Time 7:50 AM GMT 5:28 PM GMT
Civil Twilight 7:12 AM GMT 6:06 PM GMT
Nautical Twilight 6:30 AM GMT 6:48 PM GMT
Astronomical Twilight 5:49 AM GMT 7:30 PM GMT
Moon 8:30 AM GMT (2/13) 10:04 PM GMT (2/13)
Length of Visible Light 10h 53m
Length of Day
9h 38m
Waxing Crescent, 12% of the Moon is Illuminated
Feb 13
Waxing Crescent
Feb 17
First Quarter
Feb 25
Full
Mar 4
Last Quarter
Mar 11
New

Hourly Weather History & Observations

Time (GMT) Temp. Windchill Dew Point Humidity Pressure Visibility Wind Dir Wind Speed Gust Speed Precip Events Conditions
12:20 AM 37.4 °F 28.9 °F 33.8 °F 87% 29.95 in 3.7 mi SE 13.8 mph - N/A   Mostly Cloudy
12:50 AM 37.4 °F 28.5 °F 35.6 °F 93% 29.95 in 3.7 mi SE 15.0 mph - N/A   Overcast
1:50 AM 37.4 °F 28.5 °F 35.6 °F 93% 29.92 in 1.9 mi SE 15.0 mph - N/A Rain Light Rain
2:20 AM 39.2 °F 31.6 °F 37.4 °F 93% 29.92 in 1.9 mi SE 12.7 mph - N/A   Overcast
2:50 AM 40 °F - 38 °F 90% 29.92 in 2 mi SE 15.0 mph - - Rain Light Rain Showers
2:50 AM 39.2 °F 31.6 °F 39.2 °F 100% 29.92 in - SE 12.7 mph - N/A   Drizzle
3:20 AM 39.2 °F 32.0 °F 39.2 °F 100% 29.89 in - SSE 11.5 mph - N/A   Drizzle
3:50 AM 39.2 °F 32.0 °F 39.2 °F 100% 29.89 in 2.2 mi SE 11.5 mph - N/A Rain Rain
4:20 AM 39.2 °F 32.0 °F 39.2 °F 100% 29.86 in 1.9 mi SE 11.5 mph - N/A   Drizzle
4:50 AM 41.0 °F 34.3 °F 41.0 °F 100% 29.86 in 1.9 mi SSE 11.5 mph - N/A Rain Rain
5:50 AM 40 °F - 39 °F 94% 29.85 in 2 mi SE 16.1 mph - - Rain Rain
5:50 AM 39.2 °F 31.2 °F 39.2 °F 100% 29.83 in 1.9 mi SE 13.8 mph - N/A Rain Rain
6:20 AM 39.2 °F 31.2 °F 39.2 °F 100% 29.83 in 3.1 mi SE 13.8 mph - N/A Rain Rain
6:50 AM 41.0 °F 33.1 °F 41.0 °F 100% 29.83 in - SSE 15.0 mph - N/A Rain Rain
7:20 AM 41.0 °F 33.9 °F 41.0 °F 100% 29.83 in 3.1 mi SSE 12.7 mph - N/A Rain Rain
7:50 AM 41.0 °F 33.5 °F 41.0 °F 100% 29.80 in 3.1 mi SSE 13.8 mph - N/A Rain Rain
8:20 AM 41.0 °F 33.5 °F 41.0 °F 100% 29.80 in 3.7 mi SSE 13.8 mph - N/A Rain Rain
8:50 AM 42 °F - 40 °F 91% 29.80 in 6 mi SSE 16.1 mph - - Rain Rain
8:50 AM 41.0 °F 33.5 °F 41.0 °F 100% 29.80 in 3.7 mi SSE 13.8 mph - N/A Rain Rain
9:20 AM 41.0 °F 33.5 °F 41.0 °F 100% 29.77 in 4.3 mi SSE 13.8 mph - N/A Rain Rain
9:50 AM 42.8 °F 36.2 °F 42.8 °F 100% 29.77 in 5.6 mi SSE 12.7 mph - N/A Rain Rain
10:20 AM 42.8 °F 36.2 °F 42.8 °F 100% 29.74 in 5.0 mi SSE 12.7 mph - N/A Rain Rain
10:50 AM 42.8 °F 36.6 °F 42.8 °F 100% 29.74 in 3.1 mi SSE 11.5 mph - N/A Rain Rain
11:20 AM 44.6 °F 38.4 °F 44.6 °F 100% 29.71 in 3.7 mi South 12.7 mph - N/A Rain Rain
11:50 AM 45 °F - 43 °F 92% 29.71 in 11 mi SSE 20.7 mph - - Rain Rain
11:50 AM 44.6 °F 38.4 °F 44.6 °F 100% 29.71 in 6.2 mi South 12.7 mph 24.2 mph N/A Rain Rain
12:20 PM 44.6 °F 37.8 °F 44.6 °F 100% 29.68 in 6.2 mi South 15.0 mph 27.6 mph N/A   Mostly Cloudy
12:50 PM 46.4 °F 40.1 °F 46.4 °F 100% 29.68 in 5.6 mi South 15.0 mph 26.5 mph N/A Rain Rain
1:20 PM 46.4 °F 40.4 °F 46.4 °F 100% 29.65 in 6.2 mi South 13.8 mph - N/A   Mostly Cloudy
1:50 PM 48.2 °F - 48.2 °F 100% 29.65 in 3.7 mi South 15.0 mph - N/A   Mostly Cloudy
2:20 PM 48.2 °F - 48.2 °F 100% 29.62 in 3.7 mi South 13.8 mph - N/A   Mostly Cloudy
2:50 PM 49 °F - 48 °F 95% 29.61 in 10 mi South 16.1 mph - -   Overcast
2:50 PM 50.0 °F - 50.0 °F 100% 29.59 in 6.2 mi South 13.8 mph - N/A Rain Light Rain
3:20 PM 50.0 °F - 50.0 °F 100% 29.59 in 4.3 mi South 12.7 mph - N/A Rain Light Rain
3:50 PM 50.0 °F - 50.0 °F 100% 29.59 in 6.2 mi SSW 12.7 mph - N/A Rain Light Rain
4:20 PM 51.8 °F - 51.8 °F 100% 29.56 in 6.2 mi SSW 13.8 mph - N/A Rain Light Rain
4:50 PM 51.8 °F - 51.8 °F 100% 29.56 in 6.2 mi SSW 15.0 mph - N/A Rain Light Rain
5:20 PM 51.8 °F - 51.8 °F 100% 29.56 in 5.6 mi SSW 15.0 mph - N/A Rain Light Rain
5:50 PM 50 °F - 49 °F 94% 29.57 in 9 mi SSW 13.8 mph - - Rain Light Rain
5:50 PM 50.0 °F - 50.0 °F 100% 29.56 in 6.2 mi SW 15.0 mph - N/A Rain Light Rain
6:20 PM 48.2 °F - 48.2 °F 100% 29.56 in 6.2 mi WSW 15.0 mph - N/A Rain Light Rain
6:50 PM 48.2 °F - 48.2 °F 100% 29.59 in 6.2 mi SW 10.4 mph - N/A   Scattered Clouds
7:20 PM 48.2 °F - 48.2 °F 100% 29.59 in 6.2 mi SW 10.4 mph - N/A   Mostly Cloudy
7:50 PM 48.2 °F - 48.2 °F 100% 29.59 in 6.2 mi SSW 8.1 mph - N/A   Mostly Cloudy
8:20 PM 48.2 °F - 48.2 °F 100% 29.59 in 6.2 mi SW 11.5 mph - N/A   Mostly Cloudy
8:50 PM 47 °F - 46 °F 94% 29.59 in 22 mi SW 12.7 mph - - Rain Rain
8:50 PM 48.2 °F - 48.2 °F 100% 29.56 in 6.2 mi WSW 16.1 mph - N/A   Mostly Cloudy
9:20 PM 46.4 °F 40.4 °F 46.4 °F 100% 29.59 in 6.2 mi WSW 13.8 mph - N/A Rain Light Rain
9:50 PM 46.4 °F 40.1 °F 46.4 °F 100% 29.59 in 6.2 mi WSW 15.0 mph - N/A   Mostly Cloudy
10:20 PM 44.6 °F 38.8 °F 44.6 °F 100% 29.59 in 6.2 mi West 11.5 mph - N/A   Partly Cloudy
11:20 PM 42.8 °F 37.0 °F 41.0 °F 93% 29.59 in - WSW 10.4 mph - N/A   Clear
11:50 PM 44 °F - 41 °F 85% 29.62 in 10 mi SW 9.2 mph - -   Scattered Clouds
11:50 PM 44.6 °F 39.7 °F 42.8 °F 93% 29.62 in 6.2 mi SW 9.2 mph - N/A   Partly Cloudy